Date String (YYYY-MM-DD hh:mm:ss) UTC,Instrument flags,absolute air pressure of the measurement (hPa),sample flow rate (lpm),inlet stack bypass flow (lpm),air temperature of the measurement (°C),ambient temperature measured by the external sensor (°C),aerosol sample conditioner tube jacket temperature (°C),OPC LED temperature (°C),internal box temperature (°C),relative humidity of the measurement (%),span deviation,mass concentration of particles derived from Lorenz-Mie calculation of OPC scattering (μg/m³),mass concentration of particles derived from Lorenz-Mie calculation of OPC scattering (μg/m³),mass concentration of particles derived from Lorenz-Mie calculation of OPC scattering (μg/m³)
DateTimeUTC,F1_M11,P_M11,Q1_M11,Q2_M11,T1_M11,T2_M11,T3_M11,T4_M11,T5_M11,U1_M11,ZSPAN_M11,X0_M11,X2_M11,X1_M11
2024-02-24 20:00:00,SystemResetWarning,0825.4,4.99,000.00,021.3,020.7,000.0,029.3,022.9,06.1,0000.0,0009.86,0003.16,0000.93
2024-02-24 20:01:00,SystemResetWarning,0825.6,5.02,000.00,021.3,020.7,000.0,029.3,022.9,06.0,0000.0,0009.77,0003.08,0000.92
2024-02-24 20:02:00,SystemResetWarning,0825.6,4.99,000.00,021.3,020.7,000.0,029.3,022.9,06.0,0000.0,0010.43,0003.02,0000.90
2024-02-24 20:03:00,SystemResetWarning,0825.5,4.98,000.00,021.3,020.7,000.0,029.3,022.9,06.1,0000.0,0011.10,0003.02,0000.90
2024-02-24 20:04:00,SystemResetWarning,0825.3,5.01,000.00,021.3,020.8,000.0,029.3,023.0,06.1,0000.0,0011.43,0003.09,0000.90
2024-02-24 20:05:00,SystemResetWarning,0825.5,5.00,000.00,021.3,020.8,000.0,029.3,023.0,06.3,0000.0,0012.01,0003.15,0000.90
2024-02-24 20:06:00,SystemResetWarning,0825.7,5.00,000.00,021.4,020.8,000.0,029.4,023.0,06.2,0000.0,0012.74,0003.12,0000.90
2024-02-24 20:07:00,SystemResetWarning,0825.6,5.00,000.00,021.4,020.8,000.0,029.4,023.0,06.2,0000.0,0012.73,0003.10,0000.89
2024-02-24 20:08:00,SystemResetWarning,0825.5,5.00,000.00,021.4,020.8,000.0,029.4,023.0,06.0,0000.0,0012.79,0003.13,0000.89
2024-02-24 20:09:00,SystemResetWarning,0825.5,4.99,000.00,021.4,020.9,000.0,029.4,023.1,06.0,0000.0,0012.31,0003.13,0000.89
2024-02-24 20:10:00,SystemResetWarning,0825.5,4.99,000.00,021.4,020.9,000.0,029.4,023.1,06.0,0000.0,0012.61,0003.09,0000.86
2024-02-24 20:11:00,SystemResetWarning,0825.2,5.01,000.00,021.5,020.9,000.0,029.4,023.1,06.0,0000.0,0012.77,0003.05,0000.85
2024-02-24 20:12:00,SystemResetWarning,0825.2,5.00,000.00,021.5,020.9,000.0,029.5,023.1,06.0,0000.0,0013.10,0003.09,0000.84
2024-02-24 20:13:00,SystemResetWarning,0825.2,4.99,000.00,021.5,020.9,000.0,029.5,023.1,05.9,0000.0,0012.72,0003.10,0000.83
2024-02-24 20:14:00,SystemResetWarning,0825.3,4.99,000.00,021.5,020.9,000.0,029.5,023.1,06.0,0000.0,0012.47,0003.10,0000.84
2024-02-24 20:15:00,SystemResetWarning,0825.3,5.02,000.00,021.5,020.9,000.0,029.5,023.2,05.8,0000.0,0012.91,0003.07,0000.85
2024-02-24 20:16:00,SystemResetWarning,0825.0,5.01,000.00,021.5,020.9,000.0,029.5,023.2,05.9,0000.0,0012.78,0003.08,0000.87
2024-02-24 20:17:00,SystemResetWarning,0825.1,4.99,000.00,021.5,021.0,000.0,029.5,023.2,06.0,0000.0,0013.25,0003.15,0000.88
2024-02-24 20:18:00,SystemResetWarning,0825.3,4.99,000.00,021.5,021.0,000.0,029.6,023.2,05.9,0000.0,0013.54,0003.15,0000.88
2024-02-24 20:19:00,SystemResetWarning,0825.3,5.01,000.00,021.5,021.0,000.0,029.6,023.2,06.1,0000.0,0013.41,0003.06,0000.88
2024-02-24 20:20:00,SystemResetWarning,0825.1,5.01,000.00,021.5,021.0,000.0,029.6,023.2,05.8,0000.0,0013.09,0003.01,0000.88
2024-02-24 20:21:00,SystemResetWarning,0825.3,5.00,000.00,021.6,021.0,000.0,029.6,023.2,06.0,0000.0,0012.37,0002.97,0000.89
2024-02-24 20:22:00,SystemResetWarning,0825.1,5.00,000.00,021.6,021.0,000.0,029.6,023.3,06.1,0000.0,0013.38,0002.99,0000.90
2024-02-24 20:23:00,SystemResetWarning,0825.1,4.99,000.00,021.6,021.0,000.0,029.6,023.3,05.9,0000.0,0013.18,0002.99,0000.91
2024-02-24 20:24:00,SystemResetWarning,0825.2,4.99,000.00,021.6,021.0,000.0,029.6,023.3,06.1,0000.0,0013.18,0003.04,0000.92
2024-02-24 20:25:00,SystemResetWarning,0825.0,5.01,000.00,021.6,021.0,000.0,029.7,023.3,05.9,0000.0,0013.27,0002.96,0000.92
2024-02-24 20:26:00,SystemResetWarning,0825.1,5.01,000.00,021.6,021.0,000.0,029.7,023.3,06.0,0000.0,0013.15,0002.96,0000.91
2024-02-24 20:27:00,SystemResetWarning,0825.0,5.00,000.00,021.6,021.0,000.0,029.7,023.3,05.9,0000.0,0013.89,0002.90,0000.89
2024-02-24 20:28:00,SystemResetWarning,0825.1,4.99,000.00,021.6,021.0,000.0,029.7,023.3,05.9,0000.0,0013.03,0002.85,0000.88
2024-02-24 20:29:00,SystemResetWarning,0825.1,4.99,000.00,021.6,021.0,000.0,029.7,023.3,06.0,0000.0,0012.76,0002.85,0000.88
2024-02-24 20:30:00,SystemResetWarning,0824.9,5.00,000.00,021.6,021.0,000.0,029.7,023.3,06.0,0000.0,0013.24,0002.92,0000.88
2024-02-24 20:31:00,SystemResetWarning,0825.0,5.00,000.00,021.7,021.0,000.0,029.7,023.3,06.0,0000.0,0013.66,0002.93,0000.88
2024-02-24 20:32:00,SystemResetWarning,0824.9,5.01,000.00,021.7,021.1,000.0,029.7,023.3,06.2,0000.0,0013.96,0002.97,0000.89
2024-02-24 20:33:00,SystemResetWarning,0824.9,5.01,000.00,021.7,021.1,000.0,029.7,023.4,06.0,0000.0,0013.29,0002.98,0000.89
2024-02-24 20:34:00,SystemResetWarning,0824.9,5.00,000.00,021.7,021.1,000.0,029.7,023.4,06.1,0000.0,0014.14,0002.98,0000.90
2024-02-24 20:35:00,SystemResetWarning,0824.9,5.00,000.00,021.7,021.1,000.0,029.8,023.4,05.9,0000.0,0014.26,0002.99,0000.89
2024-02-24 20:36:00,SystemResetWarning,0824.7,5.00,000.00,021.7,021.1,000.0,029.8,023.4,05.8,0000.0,0014.32,0003.00,0000.88
2024-02-24 20:37:00,SystemResetWarning,0824.8,5.00,000.00,021.7,021.1,000.0,029.8,023.4,06.0,0000.0,0013.51,0002.98,0000.90
2024-02-24 20:38:00,SystemResetWarning,0824.7,5.00,000.00,021.7,021.1,000.0,029.8,023.4,06.1,0000.0,0012.66,0002.93,0000.90
2024-02-24 20:39:00,SystemResetWarning,0824.8,5.00,000.00,021.7,021.1,000.0,029.8,023.4,05.9,0000.0,0012.75,0002.89,0000.92
2024-02-24 20:40:00,SystemResetWarning,0824.5,4.99,000.00,021.7,021.1,000.0,029.8,023.4,06.1,0000.0,0013.06,0002.90,0000.92
2024-02-24 20:41:00,SystemResetWarning,0824.5,4.99,000.00,021.8,021.1,000.0,029.8,023.5,05.9,0000.0,0013.77,0002.89,0000.92
2024-02-24 20:42:00,SystemResetWarning,0824.6,5.01,000.00,021.8,021.2,000.0,029.9,023.5,06.0,0000.0,0014.10,0002.85,0000.90
2024-02-24 20:43:00,SystemResetWarning,0824.5,5.00,000.00,021.8,021.2,000.0,029.9,023.4,06.0,0000.0,0014.01,0002.77,0000.89
2024-02-24 20:44:00,SystemResetWarning,0824.5,5.00,000.00,021.8,021.2,000.0,029.9,023.4,06.0,0000.0,0013.93,0002.72,0000.88
2024-02-24 20:45:00,SystemResetWarning,0824.4,5.00,000.00,021.8,021.2,000.0,029.9,023.5,05.9,0000.0,0012.92,0002.74,0000.89
2024-02-24 20:46:00,SystemResetWarning,0824.6,5.01,000.00,021.8,021.2,000.0,029.9,023.4,06.0,0000.0,0012.58,0002.73,0000.90
2024-02-24 20:47:00,SystemResetWarning,0824.2,5.00,000.00,021.8,021.2,000.0,029.9,023.5,06.1,0000.0,0013.25,0002.85,0000.92
2024-02-24 20:48:00,SystemResetWarning,0824.4,5.00,000.00,021.8,021.2,000.0,029.9,023.5,06.0,0000.0,0014.00,0002.92,0000.91
2024-02-24 20:49:00,SystemResetWarning,0824.3,5.00,000.00,021.8,021.2,000.0,029.9,023.5,06.0,0000.0,0014.67,0003.00,0000.90
2024-02-24 20:50:00,SystemResetWarning,0824.1,5.00,000.00,021.8,021.2,000.0,030.0,023.5,05.9,0000.0,0015.65,0003.15,0000.89
2024-02-24 20:51:00,SystemResetWarning,0824.3,5.00,000.00,021.8,021.2,000.0,030.0,023.5,05.7,0000.0,0018.53,0003.34,0000.89
2024-02-24 20:52:00,SystemResetWarning,0824.3,5.00,000.00,021.8,021.2,000.0,030.0,023.5,05.9,0000.0,0017.98,0003.39,0000.90
2024-02-24 20:53:00,SystemResetWarning,0824.1,5.00,000.00,021.8,021.2,000.0,030.0,023.5,05.9,0000.0,0017.68,0003.47,0000.92
2024-02-24 20:54:00,SystemResetWarning,0824.3,5.00,000.00,021.8,021.2,000.0,030.0,023.5,05.9,0000.0,0017.95,0003.49,0000.92
2024-02-24 20:55:00,SystemResetWarning,0824.3,5.00,000.00,021.8,021.2,000.0,030.0,023.5,06.0,0000.0,0018.47,0003.51,0000.93
2024-02-24 20:56:00,SystemResetWarning,0824.2,5.00,000.00,021.9,021.2,000.0,030.0,023.6,05.9,0000.0,0019.24,0003.54,0000.92
2024-02-24 20:57:00,SystemResetWarning,0824.2,5.00,000.00,021.9,021.2,000.0,030.0,023.6,05.9,0000.0,0020.04,0003.56,0000.91
2024-02-24 20:58:00,SystemResetWarning,0824.2,5.00,000.00,021.9,021.2,000.0,030.0,023.5,06.0,0000.0,0019.37,0003.54,0000.92
2024-02-24 20:59:00,SystemResetWarning,0824.3,5.01,000.00,021.9,021.3,000.0,030.0,023.6,05.9,0000.0,0019.13,0003.54,0000.92
